Regional Weather Roundup
Issued by NWS

Home | Current Version | Previous Version | Graphics & Text | Print | Product List | Glossary On
Versions: 1 2 3 4 5 6 7 8 9 10 11 12 13 14 15 16 17 18 19 20 21 22 23 24 25 26 27 28 29 30 31 32 33 34 35 36 37 38 39 40 41 42 43 44 45 46 47 48 49 50
258
ASUS43 KLMK 311810
RWRKY
KENTUCKY REGIONAL WEATHER ROUNDUP
NATIONAL WEATHER SERVICE LOUISVILLE KY
200 PM EDT WED AUG 31 2016

NOTE "FAIR" INDICATES FEW OR NO CLOUDS BELOW 12,000 FEET
WITH NO SIGNIFICANT WEATHER AND/OR OBSTRUCTIONS TO VISIBILITY.

KYZ001>023-026-027-061>063-070>075-311900-
WESTERN AND SOUTH CENTRAL KENTUCKY

CITY           SKY/WX    TMP DP  RH WIND       PRES   REMARKS
PADUCAH        SUNNY     88  72  58 NW6       29.99F HX  94
HENDERSON      MOSUNNY   88  70  55 CALM      29.97F HX  92
OWENSBORO      MOSUNNY   88  74  63 NW9       29.98F HX  96
HOPKINSVILLE   MOSUNNY   89  72  57 NW10      29.97F HX  95
BOWLING GREEN  MOSUNNY   91  69  48 VRB5      29.97F HX  96
GLASGOW        SUNNY     89  70  52 NW7       29.98F HX  94
$$

KYZ024-025-028>034-038-045-046-053-311900-
NORTH CENTRAL KENTUCKY

CITY           SKY/WX    TMP DP  RH WIND       PRES   REMARKS
LOUISVILLE/SDF PTSUNNY   88  71  57 NW9       29.96F HX  94
LOUISVILLE/LOU MOSUNNY   89  71  55 NW6       29.97F HX  95
FORT KNOX      MOSUNNY   84  73  69 W5        29.97F HX  90
$$

KYZ035>037-039>044-047>052-055>060-089>105-311900-
NORTHEAST KENTUCKY

CITY           SKY/WX    TMP DP  RH WIND       PRES   REMARKS
LEXINGTON      PTSUNNY   85  67  54 N7        30.00S
COVINGTON      PTSUNNY   84  71  65 NW6       29.98F
FRANKFORT      CLOUDY    83  70  64 W7        29.98F
$$

KYZ054-064>069-076>088-106>120-311900-
SOUTHEAST KENTUCKY

CITY           SKY/WX    TMP DP  RH WIND       PRES   REMARKS
JACKSON        PTSUNNY   86  69  56 VRB6      30.01F HX  90
LONDON         MOSUNNY   88  66  48 W3        30.00F HX  90
SOMERSET       MOSUNNY   86  66  51 CALM      30.00F
MIDDLESBORO    MOSUNNY   86  70  58 CALM      30.00F HX  90
MONTICELLO     MOCLDY   N/A N/A N/A W8        30.00F
$$





USA.gov is the U.S. government's official web portal to all federal, state and local government web resources and services.